Regional Weather Roundup
Issued by NWS

Home | Current Version | Previous Version | Graphics & Text | Print | Product List | Glossary On
Versions: 1 2 3 4 5 6 7 8 9 10 11 12 13 14 15 16 17 18 19 20 21 22 23 24 25 26 27
000
ASUS43 KDMX 231807
RWRIA

WEATHER ROUNDUP FOR IOWA
NATIONAL WEATHER SERVICE DES MOINES IA
100 PM CDT WED APR 23 2014

NOTE: "FAIR" INDICATES FEW OR NO CLOUDS BELOW 12,000 FEET WITH NO
SIGNIFICANT WEATHER AND/OR OBSTRUCTIONS TO VISIBILITY.

* - THESE STATIONS ARE NOT NWS STATIONS...THUS NOT UNDER NWS
QUALITY CONTROL.  THEY ALSO DO NOT REPORT WEATHER SUCH
AS PRECIPITATION OR FOG.

IAZ001>003-012>014-020>022-031>034-043>046-231900-
   NORTHWEST IOWA

CITY           SKY/WX    TMP DP  RH WIND       PRES   REMARKS
CARROLL *      CLOUDY    46  41  81 SE26G33   29.88F
CHEROKEE *     CLOUDY    51  40  67 SE30G37   29.84R
DENISON *      MOSUNNY   48  43  81 SE22G30   29.81F
LE MARS *      PTSUNNY   57  41  54 SE31G43   29.75F
ORANGE CITY *  MOSUNNY   55  39  54 SE25G35   29.78F
SHELDON *      CLOUDY    52  37  58 SE28G43   29.80S
SIOUX CITY       N/A     60  43  53 SE32G41   29.75F
6HR MIN TEMP:  49; 6HR MAX TEMP:  60; 6HR PCP:  0.01;

SPENCER        CLOUDY    50  35  56 SE30G40   29.84F
6HR MIN TEMP:  47; 6HR MAX TEMP:  51; 6HR PCP: TRACE;

STORM LAKE *   PTSUNNY   48  41  76 SE25G39   29.83F
$$

IAZ055>058-069>071-079>083-090>094-231900-
   SOUTHWEST IOWA

CITY           SKY/WX    TMP DP  RH WIND       PRES   REMARKS
ATLANTIC *     LGT RAIN  48  39  71 SE21G29   29.86F
AUDUBON *      LGT RAIN  46  39  76 SE18G24   29.89S
CLARINDA *     PTSUNNY   54  43  66 SE14G20   29.89F
COUNCIL BLFS * PTSUNNY   50  45  81 SE29G36   29.78F
CRESTON *      CLOUDY    48  41  76 SE18G24   29.94S
HARLAN  *      CLOUDY    48  41  76 SE22G36   29.86F
LAMONI         CLOUDY    51  38  60 SE12      29.97S
6HR MIN TEMP:  48; 6HR MAX TEMP:  53; 6HR PCP:  0.03;

RED OAK *      CLOUDY    52  43  71 SE17      29.87F
SHENANDOAH *   CLOUDY    55  45  67 SE22G31   29.85F
$$

IAZ047>049-059>061-072>074-084-231900-
   CENTRAL IOWA

CITY           SKY/WX    TMP DP  RH WIND       PRES   REMARKS
AMES           LGT RAIN  47  38  71 SE13G21   30.00F
6HR MIN TEMP:  47; 6HR MAX TEMP:  51; 6HR PCP:  0.02;

ANKENY *       LGT RAIN  48  39  71 SE10G17   30.01S
CHARITON *     LGT RAIN  50  39  66 E12       30.00S
DES MOINES     RAIN      47  39  74 SE12G21   30.01S
6HR MIN TEMP:  47; 6HR MAX TEMP:  54; 6HR PCP:  0.07;

GRINNELL*      LGT RAIN  50  34  53 SE17      30.04F
KNOXVILLE *    MOSUNNY   48  34  57 SE13      30.02R
MARSHALLTOWN   CLOUDY    51  30  44 SE18G28   30.02F
6HR MIN TEMP:  44; 6HR MAX TEMP:  52;

NEWTON *       MOSUNNY   46  36  66 SE20G26   30.04R
PELLA *        LGT RAIN  48  36  64 SE10G22   30.05R
PERRY *        LGT RAIN  46  39  76 SE20G25   29.94F
$$

IAZ004>006-015-016-023>025-035-036-231900-
   NORTH CENTRAL IOWA

CITY           SKY/WX    TMP DP  RH WIND       PRES   REMARKS
ALGONA *       CLOUDY    52  32  46 SE24G36   29.92F
CLARION *      MOSUNNY   48  36  61 SE26G33   29.97F
ESTHERVILLE    LGT RAIN  47  36  65 SE29G37   29.90F
6HR MIN TEMP:  44; 6HR MAX TEMP:  50; 6HR PCP:  0.01;

FORT DODGE *   CLOUDY    48  36  61 SE22G29   29.93F
MASON CITY     LGT RAIN  48  33  56 SE23G31   30.03F
6HR MIN TEMP:  43; 6HR MAX TEMP:  48; 6HR PCP: TRACE;

FOREST CITY *  CLOUDY    48  32  53 SE22G31   29.98F
IOWA FALLS *   LGT RAIN  50  34  53 SE15      30.03S
$$

IAZ007>011-017>019-026>030-037>042-050>054-066-231900-
   NORTHEAST IOWA

CITY           SKY/WX    TMP DP  RH WIND       PRES   REMARKS
CEDAR RAPIDS   CLOUDY    49  31  49 SE13      30.08F
6HR MIN TEMP:  41; 6HR MAX TEMP:  49;

CHARLES CITY * MOSUNNY   48  32  53 SE14G21   30.07F
CLINTON *        N/A     48  28  46 SE12G17   30.15F
DECORAH *      MOSUNNY   46  30  53 SE8G15    30.10S
DUBUQUE        PTSUNNY   48  28  46 E10       30.12F
6HR MIN TEMP:  34; 6HR MAX TEMP:  49;

MONTICELLO *   PTSUNNY   48  30  49 SE13      30.11F
OELWEIN *      MOSUNNY  N/A N/A N/A SE20      30.09F
WATERLOO       CLOUDY    50  31  48 SE16      30.07F
6HR MIN TEMP:  43; 6HR MAX TEMP:  50; 6HR PCP: TRACE;

$$

IAZ064-065-067-068-078-231900-
   EAST CENTRAL IOWA

CITY           SKY/WX    TMP DP  RH WIND       PRES   REMARKS
DAVENPORT        N/A     52  28  39 SE15      30.12F
6HR MIN TEMP:  37; 6HR MAX TEMP:  52;

IOWA CITY      CLOUDY    50  31  48 SE13G20   30.11F
6HR MIN TEMP:  41; 6HR MAX TEMP:  51;

MT. PLEASANT * PTSUNNY   55  28  36 SE13      30.09F
MUSCATINE *    PTSUNNY   54  28  37 SE10      30.10F
QUAD CITIES      N/A     54  29  38 SE15      30.11F
6HR MIN TEMP:  37; 6HR MAX TEMP:  55;

$$

IAZ062-063-075>077-085>089-095>099-231900-
   SOUTHEAST IOWA

CITY           SKY/WX    TMP DP  RH WIND       PRES   REMARKS
BURLINGTON     CLOUDY    54  31  41 SE13      30.09F
6HR MIN TEMP:  41; 6HR MAX TEMP:  54;

FAIRFIELD *    SUNNY     52  32  46 SE16      30.05F
FORT MADISON * SUNNY     54  34  47 SE14      30.09F
KEOKUK *       SUNNY     55  34  44 E13       30.08F
OSKALOOSA *    LGT RAIN  50  34  54 SE18G26   30.04F
CENTERVILLE *  MOSUNNY   50  36  57 E16       30.02F
OTTUMWA        LGT RAIN  50  33  52 SE17      30.02F
6HR MIN TEMP:  42; 6HR MAX TEMP:  50; 6HR PCP: TRACE;

WASHINGTON *   CLOUDY    54  30  40 SE14      30.08F
$$

ABBREVIATIONS USED IN REMARKS
   TC - TEMPERATURES IN CELSIUS
  WCI - WIND CHILL INDEX
   HX - HEAT INDEX
  VSB - VISIBILITY
$$




USA.gov is the U.S. government's official web portal to all federal, state and local government web resources and services.